GFSFLT2_250_spd_000.txt.gz
Wind_Speed
70 75 72 79 84 87 78 77 79 87 91 95 102 105 99 102 104 86 87 89 96 103 107 110 109 105 93
70 76 78 81 86 79 75 80 85 86 94 98 103 101 105 107 90 88 90 94 102 106 109 108 106 98 85
72 75 76 79 82 74 78 83 88 92 91 97 104 105 103 108 90 91 93 99 106 107 108 107 103 90 78
77 80 81 81 79 77 82 82 89 86 94 100 98 103 104 101 92 92 96 103 105 108 108 105 98 83 73
75 77 71 76 79 81 86 88 92 96 94 96 97 101 102 98 94 94 99 104 105 105 106 102 88 78 68
72 72 72 75 76 83 83 88 93 98 95 98 101 100 102 94 95 98 102 104 106 107 103 92 78 73 65
68 69 78 81 82 87 89 91 92 93 96 100 98 97 94 90 94 98 103 105 106 104 97 80 68 67 59
62 65 74 79 79 82 86 85 90 94 100 98 96 97 90 89 94 97 101 104 106 103 89 74 61 62 52
70 74 82 85 84 89 88 90 92 95 96 93 94 91 87 90 93 96 101 103 101 96 82 69 60 56 48
72 77 76 79 86 90 86 91 93 94 89 91 95 85 90 91 92 93 100 100 97 84 74 63 56 50 46
73 76 81 88 90 88 87 87 90 87 86 91 77 84 89 94 93 96 99 98 90 76 67 58 51 46 41
76 77 79 85 84 87 83 84 82 83 88 87 79 83 89 95 93 98 99 93 82 70 60 53 45 39 38
76 80 82 84 81 83 77 84 78 81 81 78 79 83 89 90 95 98 98 91 78 68 58 50 43 39 37
69 75 75 74 78 74 72 74 81 82 83 75 77 85 89 88 95 95 94 86 75 63 54 47 45 41 37
67 71 72 72 73 64 70 77 80 82 73 73 77 86 87 93 97 94 88 75 67 56 46 45 43 41 37
65 65 67 58 61 65 71 77 76 68 68 71 79 82 84 86 89 88 75 67 57 49 42 42 40 36 35
55 47 49 56 63 69 72 67 60 64 68 73 77 81 85 87 88 81 70 61 52 46 42 40 34 31 29

GFSFLT2_250_spd_003.txt.gz
Wind_Speed
66 72 71 74 68 67 69 75 78 85 86 81 80 83 89 94 98 102 102 108 100 98 93 92 96 99 106
63 65 62 62 60 65 71 76 81 80 84 78 81 84 88 96 98 102 103 108 95 97 93 96 98 103 104
65 63 65 66 60 67 74 78 81 79 76 76 85 90 92 99 99 104 105 101 101 92 94 98 101 104 102
62 62 66 66 62 68 74 74 78 76 76 81 85 90 99 101 102 105 98 100 97 93 96 99 104 103 100
60 67 69 68 66 68 71 70 75 76 79 84 90 95 99 101 103 96 97 101 93 94 97 103 104 100 95
61 68 67 69 63 67 66 72 75 79 84 90 92 95 100 102 104 96 97 97 93 95 101 105 104 94 87
58 66 67 65 70 66 73 79 78 83 90 94 91 94 100 101 99 94 99 92 94 99 104 105 99 91 82
56 63 64 70 70 75 79 78 83 88 89 93 92 96 98 96 95 94 101 94 94 100 105 104 99 89 78
55 57 64 65 72 77 77 84 89 85 93 92 95 98 96 94 90 98 101 93 96 103 105 102 99 85 72
54 58 64 69 69 71 77 87 86 89 94 94 94 94 92 92 96 97 92 93 98 103 101 100 90 78 65
56 60 62 70 72 73 79 86 90 92 94 92 94 92 94 93 97 88 89 92 100 99 95 92 80 69 62
55 58 66 70 71 78 83 88 88 88 89 91 94 88 90 95 89 88 91 96 97 95 92 83 73 63 59
49 56 60 71 78 80 84 87 86 88 86 88 85 87 89 94 89 91 95 97 96 95 88 76 65 60 57
59 66 73 74 78 83 83 85 86 85 85 80 84 88 88 78 87 92 93 96 99 95 81 69 60 55 53
59 63 66 70 73 76 76 77 77 78 76 80 84 75 74 81 88 93 96 97 95 81 67 58 54 50 47
53 58 62 68 69 70 74 67 66 70 74 72 66 72 75 81 84 90 88 90 79 66 57 51 48 48 41
45 47 55 61 59 55 56 60 66 69 64 63 66 69 75 81 87 89 91 80 67 59 55 50 46 36 35

GFSFLT2_250_spd_006.txt.gz
Wind_Speed
106 107 106 106 103 96 83 66 59 61 67 70 69 71 75 76 69 73 80 87 94 100 97 96 94 91 95
109 110 108 105 99 90 81 68 60 60 64 66 73 77 77 68 70 75 84 92 97 96 99 98 96 94 97
108 111 105 103 93 83 77 68 61 61 60 68 73 75 75 72 75 79 90 93 97 98 98 96 92 98 99
114 111 105 95 83 75 74 68 62 59 60 68 73 75 77 79 78 87 91 94 98 99 97 95 95 103 98
110 108 102 88 74 71 71 69 62 57 59 69 75 78 79 83 80 91 93 96 98 98 101 98 99 103 94
102 102 91 79 66 67 70 67 62 61 61 67 76 77 81 81 85 93 95 99 99 102 102 97 101 101 101
99 93 82 68 62 65 66 64 61 61 66 70 76 78 79 81 91 96 99 100 102 102 99 99 105 100 99
90 80 69 54 55 64 62 63 58 63 69 76 77 77 79 88 93 98 101 102 109 105 97 103 100 99 96
76 64 59 60 59 58 60 55 61 63 71 75 74 79 82 89 95 99 102 106 103 95 101 98 95 96 97
62 54 57 54 53 52 53 55 60 68 73 74 77 78 84 93 98 101 104 101 97 98 95 93 93 95 97
53 53 52 48 46 48 52 59 63 70 75 76 75 82 89 94 98 102 102 92 97 91 93 91 91 95 91
52 48 47 44 45 51 56 60 68 73 72 72 75 84 92 96 97 99 91 94 92 91 90 88 89 88 83
49 46 44 43 44 50 55 59 63 68 68 76 82 88 90 94 96 87 93 89 86 88 86 87 87 82 73
44 43 42 44 47 53 60 62 68 71 77 80 84 84 88 89 85 89 85 85 86 87 89 87 84 73 65
40 39 44 50 54 60 62 67 69 71 77 77 79 82 78 81 85 85 82 84 84 89 86 80 71 66 60
36 40 46 54 57 61 63 62 61 67 72 72 69 72 76 79 76 80 83 84 83 82 80 71 62 59 56
33 37 41 45 49 52 49 48 53 59 60 63 69 74 77 75 74 79 82 80 79 73 66 59 55 52 47

GFSFLT2_250_spd_009.txt.gz
Wind_Speed
90 95 97 99 99 104 109 113 113 110 108 98 88 74 65 63 62 57 60 64 66 68 70 76 76 81 89
96 102 102 105 108 110 113 111 111 105 100 94 84 73 65 62 60 58 61 67 70 72 74 78 81 87 92
102 104 105 106 113 116 118 111 109 100 93 88 79 73 66 62 65 64 62 67 72 74 77 79 85 92 95
107 109 112 113 114 118 114 111 105 94 84 80 76 72 66 64 68 73 70 70 75 77 82 83 90 94 98
112 114 115 112 106 112 106 105 98 81 75 73 72 72 70 66 71 72 71 72 76 81 82 88 92 98 99
110 107 104 103 99 97 96 91 90 75 69 69 70 70 69 70 73 71 71 75 78 81 87 89 96 98 101
95 89 92 94 94 91 91 83 73 68 66 64 67 68 72 71 73 69 71 77 80 87 88 91 98 101 101
88 86 82 83 79 78 77 74 72 61 62 63 64 68 68 72 72 72 73 78 85 87 88 95 101 100 101
81 77 72 66 67 65 65 64 64 62 68 65 63 67 69 74 70 69 76 83 86 87 92 99 97 102 96
68 61 58 60 61 56 55 55 58 57 63 63 64 67 69 71 72 75 79 85 85 89 98 98 99 96 96
56 50 51 53 51 48 47 51 50 58 61 61 57 68 70 68 72 79 83 84 88 93 98 97 92 94 90
50 46 47 46 45 45 46 49 51 55 58 54 59 70 68 71 78 81 83 88 92 95 93 89 91 88 89
47 48 47 43 43 44 45 48 52 55 58 61 64 65 67 75 79 82 88 91 92 88 89 90 86 87 88
43 43 39 40 41 44 46 50 51 57 56 55 57 65 70 75 79 84 88 87 84 85 89 83 83 83 79
35 35 38 38 42 45 48 49 52 56 59 60 64 68 71 74 81 81 80 80 82 81 81 82 81 76 71
33 34 35 37 43 44 54 53 55 58 60 61 65 68 70 75 71 73 78 81 77 76 75 79 75 66 62
31 31 33 37 42 49 53 46 53 58 60 62 65 64 63 62 66 73 77 76 73 72 72 70 63 53 50

GFSFLT2_250_spd_012.txt.gz
Wind_Speed
91 91 93 94 93 95 97 97 98 99 103 104 107 106 106 106 104 101 80 69 68 66 68 66 66 67 67
97 101 102 101 102 103 105 105 105 105 106 111 109 109 107 106 99 90 76 66 67 70 70 67 67 68 74
102 107 107 108 107 107 109 111 112 107 108 108 111 108 106 100 90 80 73 67 68 67 71 66 66 73 75
99 96 104 108 107 104 100 103 104 106 110 106 103 104 101 89 80 75 71 65 68 70 70 67 70 74 76
86 89 92 91 94 95 94 91 88 93 98 97 96 94 88 83 75 68 65 69 70 71 71 71 73 75 75
91 89 88 90 90 91 90 90 85 83 85 85 86 83 81 78 70 67 66 69 70 73 73 71 73 75 80
82 78 78 81 82 82 80 81 82 75 77 82 82 75 75 76 72 66 66 66 69 73 72 68 74 80 82
75 70 72 72 74 74 75 76 77 75 74 73 69 67 72 75 72 66 67 68 70 71 72 75 77 80 83
69 66 64 64 65 64 65 70 66 65 64 62 59 61 71 72 74 68 69 71 74 74 74 74 78 83 87
58 54 55 56 54 52 56 53 51 54 55 54 53 59 65 69 71 69 70 70 72 72 74 76 81 86 90
52 52 47 45 46 46 45 46 47 49 48 48 49 55 62 68 71 72 75 72 73 73 74 80 84 86 88
47 44 44 43 45 44 44 44 42 43 44 45 49 57 63 64 68 71 74 72 74 74 79 82 83 86 89
44 43 41 41 43 43 44 42 42 41 40 43 48 53 57 60 65 71 72 71 74 78 82 83 85 87 91
38 39 38 39 40 42 41 41 39 39 41 42 44 48 52 58 63 66 69 75 77 79 81 84 83 85 84
35 33 32 33 34 36 37 37 36 38 39 44 48 51 56 60 66 70 71 74 77 80 81 83 81 80 80
28 27 27 27 27 31 34 36 39 40 43 48 51 55 57 59 62 68 72 73 77 78 77 79 76 77 81
22 22 23 23 26 32 35 38 40 42 44 45 48 52 57 60 64 69 72 69 68 71 71 75 79 76 77

GFSFLT2_250_spd_015.txt.gz
Wind_Speed
115 114 116 116 116 116 113 108 108 109 109 109 108 106 103 100 101 97 100 101 101 99 97 92 87 80 68
106 108 111 112 109 107 106 101 101 103 106 108 108 105 104 103 102 99 98 100 101 97 95 88 82 73 68
94 98 102 107 102 99 99 98 96 95 97 98 101 100 101 96 104 98 96 99 97 92 88 85 76 70 65
89 86 89 90 89 90 90 90 89 91 91 90 90 92 93 92 96 95 95 96 92 90 86 82 74 68 65
87 82 81 80 79 83 84 87 86 86 88 86 89 86 84 87 90 90 89 88 85 83 81 75 73 67 67
78 76 75 75 76 77 79 81 79 83 84 83 84 82 81 82 84 83 80 80 78 77 77 75 69 68 68
70 71 68 75 76 75 75 74 74 76 78 75 79 78 74 73 74 75 74 72 74 75 74 74 69 69 67
65 63 66 68 70 70 69 68 66 69 73 69 73 73 70 68 71 70 68 70 71 71 71 71 74 72 70
61 58 58 63 66 62 61 60 58 63 66 67 67 65 65 64 69 66 64 63 64 67 73 74 69 68 70
58 54 51 52 54 54 55 53 51 55 60 56 56 59 59 57 57 58 58 59 63 68 69 71 69 70 71
57 51 47 45 46 47 46 46 46 47 50 43 46 47 45 46 49 51 55 58 61 66 69 71 70 70 74
50 49 42 39 40 40 39 40 40 41 40 40 38 41 41 43 47 49 51 55 58 62 65 70 73 75 76
44 40 37 37 36 37 35 36 36 37 36 35 36 35 35 37 40 42 47 52 57 62 66 70 70 74 74
35 32 33 30 28 30 33 32 31 32 34 35 33 32 32 33 37 43 48 56 60 61 64 66 67 72 76
30 31 29 29 26 26 26 26 27 28 30 29 29 28 30 33 38 42 47 52 55 59 63 68 72 75 79
24 24 25 24 21 20 21 21 22 23 24 25 26 28 29 31 35 39 46 51 56 61 66 71 71 72 74
19 19 19 18 18 19 19 18 18 21 22 25 27 30 31 35 40 44 51 55 59 62 64 65 68 68 72

GFSFLT2_250_spd_018.txt.gz
Wind_Speed
118 110 104 109 108 108 105 104 106 108 109 111 111 111 110 108 108 108 105 96 94 93 91 92 90 89 86
105 104 99 99 94 94 96 95 94 95 96 97 100 98 98 97 99 99 96 92 88 87 90 91 88 87 88
94 96 94 96 92 91 88 88 89 91 91 92 92 92 93 93 89 87 84 84 83 81 85 92 86 84 85
96 91 91 92 90 88 85 85 84 87 87 89 91 91 91 88 87 84 83 79 82 77 82 88 83 78 79
90 85 83 83 85 83 80 79 80 82 82 84 84 84 85 86 82 80 78 77 78 76 78 80 76 75 76
80 77 76 75 78 78 75 72 71 75 74 75 78 78 77 78 79 78 77 73 74 76 78 76 73 69 66
71 70 68 70 68 69 69 68 69 73 69 67 71 71 74 74 74 72 72 70 71 71 71 70 67 67 65
70 61 62 63 63 61 63 62 63 68 66 60 65 67 70 69 69 68 65 65 65 65 66 64 63 62 60
66 63 55 55 56 54 55 52 55 61 64 58 62 58 59 62 62 61 61 61 62 63 62 61 60 60 61
59 55 51 50 50 47 50 49 51 57 57 51 53 53 54 54 54 53 57 58 58 57 56 58 59 59 61
55 48 45 46 45 42 41 44 45 49 45 44 46 46 45 46 45 44 48 48 50 51 53 55 55 57 57
48 45 41 38 39 37 35 36 38 38 38 38 38 38 39 38 36 37 38 40 40 42 45 47 49 50 51
41 38 34 34 34 30 30 31 33 33 33 34 33 32 32 31 31 33 32 37 38 39 43 44 46 48 54
32 31 30 28 25 24 24 25 27 29 29 29 29 30 30 29 29 30 32 33 35 36 39 45 47 51 54
26 25 23 20 21 21 21 21 22 23 26 27 26 26 26 26 28 31 31 30 32 33 35 40 45 50 52
20 19 17 15 16 16 15 16 17 18 20 20 21 22 23 26 26 27 28 29 30 34 39 42 47 51 54
16 14 13 13 12 11 12 14 14 14 15 17 19 21 21 22 21 21 23 27 32 35 39 44 48 51 54

GFSFLT2_250_spd_021.txt.gz
Wind_Speed
108 101 99 100 103 100 101 101 97 98 98 96 94 95 98 96 95 95 96 99 98 92 97 91 88 87 87
99 102 99 98 94 94 94 92 91 93 92 90 89 88 88 88 85 87 88 93 92 90 92 90 82 79 83
89 94 90 88 86 85 84 83 81 82 84 85 85 84 83 81 80 80 81 83 84 85 85 83 81 73 77
87 83 82 83 80 78 77 76 76 75 77 80 79 76 75 76 77 77 77 77 78 80 82 78 75 72 76
81 76 74 75 76 73 68 71 71 69 69 72 69 69 67 69 71 72 75 75 73 74 77 77 74 73 74
77 75 75 73 70 66 64 63 63 67 61 64 61 62 63 63 64 66 67 67 67 67 71 71 71 72 73
74 72 68 70 65 61 59 59 58 63 57 59 61 59 59 59 58 59 60 59 59 60 62 65 69 71 71
73 64 61 63 59 56 56 54 53 58 56 55 55 53 52 54 55 54 54 54 53 54 57 59 63 65 67
61 59 54 54 54 51 49 48 50 52 49 50 52 47 44 47 48 47 46 48 51 52 54 58 60 62 64
50 50 49 47 46 45 44 43 45 44 38 43 46 42 40 42 41 42 42 45 48 50 53 54 58 59 59
48 43 41 40 37 36 37 35 34 32 32 38 41 39 38 36 35 36 39 42 44 46 50 51 55 56 59
42 36 32 32 30 28 28 29 29 30 31 34 32 31 30 28 28 31 36 38 40 42 45 49 52 54 55
33 29 25 24 24 24 23 25 25 25 25 26 26 26 25 23 23 27 29 30 33 36 40 44 49 51 51
25 22 20 19 18 18 18 19 19 20 21 21 21 21 21 22 23 24 25 27 29 32 36 39 40 42 46
18 16 14 12 13 14 16 17 18 20 19 19 20 21 22 23 24 23 25 26 28 31 33 35 37 40 43
14 12 11 11 13 15 16 17 17 16 16 16 18 21 21 22 24 25 25 25 27 28 30 33 35 38 42
11 10 10 12 14 15 15 13 12 12 13 14 15 17 18 18 19 20 20 22 23 27 30 32 34 35 40

GFSFLT2_250_spd_024.txt.gz
Wind_Speed
122 113 106 105 102 102 101 100 99 99 99 97 94 95 95 95 95 91 87 86 90 98 96 96 109 109 100
105 103 103 101 92 89 88 87 87 88 87 86 84 83 83 84 84 85 83 81 82 86 92 88 102 88 94
99 96 91 93 86 84 84 84 82 82 81 81 78 76 76 75 75 76 78 78 77 79 83 84 89 92 87
94 89 90 89 84 79 77 79 77 77 76 73 71 70 69 68 67 68 70 72 72 73 76 77 83 82 85
92 87 86 86 83 78 72 72 74 76 71 68 67 65 63 60 60 61 62 62 64 65 67 68 72 75 81
87 81 79 79 75 71 67 64 67 72 60 64 59 58 56 54 53 54 52 54 54 57 61 64 68 69 71
74 71 70 70 66 64 58 57 58 58 50 59 51 51 50 47 47 46 44 45 48 52 54 58 64 69 71
69 64 61 58 56 56 52 50 48 46 47 50 43 45 41 42 42 40 38 42 45 48 51 56 61 65 68
60 58 55 49 47 46 45 43 38 38 38 38 36 38 39 39 36 34 36 41 44 47 48 50 54 58 61
56 50 48 44 41 39 38 35 29 28 31 34 34 35 36 36 34 34 35 38 40 45 47 48 49 53 57
51 47 42 38 33 31 30 26 26 27 31 32 33 33 33 35 32 32 34 36 40 43 43 43 47 49 52
43 39 34 30 26 25 24 23 23 25 27 26 28 30 28 28 27 29 32 35 38 40 42 43 46 49 51
36 32 27 24 23 22 21 20 20 21 23 24 25 23 20 22 24 27 28 30 33 36 38 41 43 44 48
30 26 23 21 20 19 18 18 18 18 18 17 17 18 18 20 23 24 24 28 32 33 36 38 40 43 46
24 22 19 18 17 16 15 14 14 14 15 14 14 15 16 18 19 19 21 25 27 28 30 33 36 37 40
21 19 17 16 15 15 14 13 13 13 14 13 12 13 15 16 16 18 22 24 25 26 29 31 33 36 40
18 17 16 15 15 14 14 13 12 11 11 10 11 12 14 16 18 20 22 24 24 27 30 31 33 38 42

GFSFLT2_250_spd_027.txt.gz
Wind_Speed
132 134 133 121 116 108 103 101 101 99 97 96 96 95 94 90 88 89 87 87 89 91 94 95 102 101 92
131 120 109 104 98 94 93 92 90 91 91 89 89 89 89 85 82 81 80 77 78 81 85 89 93 94 96
107 99 95 95 89 88 85 87 88 86 82 79 78 81 82 79 76 75 74 72 71 72 76 79 84 89 91
97 92 89 88 85 83 84 85 83 81 72 72 72 73 74 75 71 69 68 66 65 66 68 73 76 81 87
91 87 85 83 82 81 75 75 78 71 62 65 64 65 69 69 66 63 60 59 58 60 63 65 70 76 82
84 81 80 80 77 73 69 66 68 58 54 61 49 56 59 60 59 57 53 52 53 55 59 62 65 71 78
76 76 72 72 66 65 61 56 55 54 50 46 41 45 45 48 49 49 48 47 49 51 55 57 62 67 71
73 68 64 62 58 55 53 50 45 45 43 38 39 35 38 40 41 42 43 44 47 50 51 53 58 62 68
66 61 60 54 50 50 45 44 41 41 39 35 34 32 32 33 35 38 40 43 45 46 48 50 54 59 65
62 55 52 49 46 44 40 37 36 34 32 29 28 27 28 30 32 35 38 41 43 44 46 49 54 58 62
57 52 46 43 40 37 34 30 28 25 22 21 19 20 23 26 29 32 35 38 41 43 45 47 51 56 62
49 44 39 36 34 31 28 25 22 20 17 16 15 18 21 22 22 26 31 36 40 43 44 44 48 54 58
41 36 32 30 27 24 22 20 17 15 14 12 12 14 17 19 22 25 27 31 34 36 37 40 46 51 52
33 29 27 25 22 20 18 16 13 12 10 10 11 13 16 18 22 24 26 28 29 32 35 37 43 47 49
26 22 22 21 20 18 16 15 13 11 9 7 8 11 13 15 17 18 22 24 26 28 30 35 40 42 44
20 19 19 19 17 16 16 13 12 10 7 6 7 10 11 13 15 18 20 22 23 25 28 30 35 38 42
18 17 17 16 16 16 14 12 10 6 5 4 5 9 12 14 15 16 19 21 24 27 30 32 33 35 38

GFSFLT2_250_spd_030.txt.gz
Wind_Speed
126 130 130 130 128 127 123 114 109 109 110 107 104 102 100 98 98 99 97 93 92 92 92 93 94 96 99
126 125 121 114 110 104 100 100 99 98 96 94 93 89 87 88 89 90 90 87 83 82 81 85 87 88 91
119 112 105 103 97 96 93 96 95 90 84 86 82 82 83 84 85 86 87 85 80 76 77 77 80 80 81
108 102 98 96 93 87 85 88 86 81 78 79 76 74 74 73 74 77 78 77 75 70 71 72 75 75 75
98 95 92 89 85 83 77 78 81 70 68 75 64 66 65 65 66 68 70 68 67 66 67 68 69 70 71
90 86 85 80 78 75 70 69 71 60 65 66 57 60 58 55 56 60 60 60 60 60 60 63 67 66 68
81 79 75 73 69 69 62 59 60 57 57 52 47 50 50 48 48 50 51 51 53 55 58 60 62 64 64
75 69 66 65 60 59 55 52 50 49 48 44 43 41 40 41 41 42 44 45 48 53 57 59 61 61 63
66 62 59 55 52 52 47 44 44 41 39 37 35 34 33 32 34 36 38 39 43 49 54 58 58 59 60
61 55 50 47 44 41 42 39 37 33 31 28 27 26 27 26 26 28 31 35 39 44 48 51 52 54 56
54 48 43 40 37 36 34 32 29 27 24 21 21 20 20 20 18 21 25 31 36 40 43 47 49 53 56
45 41 37 34 32 31 28 26 23 21 19 17 16 15 14 14 16 17 18 23 28 33 38 42 45 48 52
38 36 32 30 28 26 25 22 18 16 16 15 13 11 9 9 11 15 17 20 25 30 35 38 41 43 46
32 30 28 26 23 21 19 17 17 14 12 11 10 9 8 7 9 11 18 21 25 30 33 35 38 40 41
28 26 24 22 20 18 16 15 13 13 11 9 8 7 6 6 9 12 15 23 24 25 26 30 32 34 38
25 23 21 20 17 15 15 14 11 9 8 7 6 6 6 5 8 11 15 18 22 25 26 27 29 32 36
23 22 20 18 16 14 13 12 8 7 5 5 5 4 5 7 8 10 13 17 20 23 26 27 28 31 35

GFSFLT2_250_spd_033.txt.gz
Wind_Speed
115 120 124 129 134 137 138 137 135 133 129 123 120 118 113 110 109 107 107 106 105 104 104 101 98 98 101
123 126 129 131 129 123 118 116 115 113 111 107 104 99 98 97 97 96 96 95 95 94 93 93 91 92 93
124 119 112 110 106 104 104 107 103 98 94 93 90 89 89 87 85 85 85 85 84 84 84 82 83 83 85
110 101 100 97 96 93 93 95 91 88 86 83 82 82 79 77 78 79 78 78 78 78 79 79 79 78 78
98 96 94 89 87 86 82 83 81 77 79 78 74 71 70 69 68 68 68 68 68 68 68 70 72 74 75
91 85 84 82 80 77 75 73 72 68 70 73 65 65 63 62 60 60 61 61 59 59 59 60 62 66 71
82 80 77 74 73 71 68 65 63 61 62 64 53 58 56 57 54 54 53 53 52 49 51 52 57 63 67
77 74 71 68 66 63 59 55 53 53 56 56 49 49 49 48 46 45 44 45 43 42 45 48 53 59 63
71 67 63 59 55 53 52 51 48 46 45 45 43 41 39 36 37 35 34 35 34 34 37 41 47 52 53
62 57 53 50 48 47 46 44 43 40 37 35 36 31 27 27 27 26 26 26 25 25 29 33 36 40 47
54 49 47 44 41 39 38 38 34 31 32 28 27 24 21 21 20 19 19 19 17 19 22 26 31 38 44
47 45 41 38 35 35 33 30 29 27 24 23 21 19 16 16 14 13 13 12 13 15 19 24 30 36 42
39 37 35 33 32 31 30 28 24 21 20 19 17 14 12 12 11 10 12 12 13 15 18 23 27 32 38
33 32 31 31 30 29 28 25 22 18 17 15 12 10 8 8 9 8 10 13 14 16 18 20 22 27 31
31 30 29 27 27 26 24 22 18 17 14 13 10 7 6 5 8 10 9 13 15 16 17 20 24 27 30
28 26 25 25 23 22 20 18 16 15 12 11 9 6 4 4 7 12 14 14 17 19 21 22 23 27 31
26 25 23 21 21 20 20 17 14 11 8 9 8 6 5 5 7 10 13 15 19 22 23 26 28 30 32

GFSFLT2_250_spd_036.txt.gz
Wind_Speed
112 117 120 123 127 129 131 132 131 133 129 125 121 119 118 118 117 116 114 112 111 111 112 112 112 112 114
121 125 127 128 124 119 115 113 111 111 109 108 107 105 105 104 103 103 102 102 101 101 100 100 99 100 99
122 118 113 112 106 105 105 104 101 99 98 94 90 90 91 92 90 91 90 91 92 94 94 94 94 94 94
111 104 100 97 95 91 93 92 88 88 85 82 82 82 79 77 76 76 78 79 80 82 82 83 83 83 85
98 95 92 89 86 85 82 81 80 77 77 78 74 73 71 69 71 72 72 72 71 71 72 74 76 77 78
89 86 86 81 79 76 72 72 71 66 70 72 64 66 63 62 62 62 63 60 59 59 61 63 65 67 69
82 81 79 75 71 68 65 64 61 60 61 59 57 55 54 53 51 52 51 50 51 51 51 53 56 60 62
76 74 70 68 64 61 59 55 52 51 53 50 50 45 43 44 43 42 44 45 45 45 44 45 49 51 53
69 66 63 60 58 54 50 48 45 43 44 43 40 39 34 38 35 37 38 38 38 38 38 38 40 43 46
60 58 55 51 49 47 46 42 40 38 36 35 33 35 28 34 29 32 32 32 31 29 31 32 35 39 41
54 50 47 44 41 38 36 37 34 32 33 31 29 29 27 25 27 27 25 24 21 22 24 27 29 32 33
47 44 41 37 35 33 31 31 31 30 28 26 24 23 23 21 21 21 19 16 15 16 18 20 23 27 32
40 37 36 33 31 30 28 26 28 26 24 22 22 20 19 17 17 16 14 10 10 10 11 13 17 22 30
35 33 32 30 29 28 27 23 23 23 20 20 19 17 16 13 12 12 10 7 6 9 11 13 16 18 26
32 30 30 30 30 28 27 23 21 20 18 16 15 14 13 9 8 9 8 5 6 9 13 16 19 20 24
30 29 29 28 28 28 27 24 19 16 17 15 12 10 9 6 6 5 7 3 6 11 14 18 20 23 24
27 27 27 28 27 27 26 23 21 14 13 14 11 8 6 5 4 4 5 6 8 12 15 20 21 23 26

GFSFLT2_250_spd_039.txt.gz
Wind_Speed
115 118 119 122 123 122 120 117 117 119 117 115 113 112 111 112 113 115 116 116 117 117 116 119 121 124 129
122 123 125 119 112 108 104 101 99 101 102 101 101 101 101 100 100 101 102 103 102 101 101 102 101 102 104
119 115 110 105 100 97 94 93 91 91 88 89 89 89 89 89 88 88 90 91 92 92 92 93 93 94 95
108 103 100 96 92 87 85 82 81 78 81 81 78 79 79 78 79 78 78 79 80 82 83 83 83 83 85
100 95 91 86 83 81 77 77 75 72 75 71 69 71 71 72 71 72 71 72 73 73 74 74 74 75 76
92 86 84 80 78 75 72 68 68 62 69 64 62 65 63 61 60 63 64 63 63 63 63 65 68 70 72
85 81 79 74 71 68 65 61 58 60 61 57 54 53 52 51 51 54 53 52 54 54 56 58 59 61 62
79 75 71 68 64 61 59 54 48 48 50 51 50 45 39 43 43 42 42 44 45 46 47 48 50 54 56
70 68 64 60 58 55 51 47 43 40 40 40 41 41 33 37 35 34 36 38 38 39 40 41 43 45 49
64 60 57 53 49 47 47 45 42 39 34 34 33 36 28 32 31 28 29 30 30 32 33 36 37 40 44
57 53 50 47 43 41 40 40 39 34 33 32 31 28 27 26 27 27 25 25 25 26 27 29 32 35 36
51 48 45 42 40 37 35 33 35 35 33 30 29 26 24 24 23 23 21 21 20 21 21 22 24 27 30
45 43 41 39 36 34 33 31 32 34 30 28 27 25 22 21 20 21 18 16 16 16 15 17 19 21 24
40 39 38 37 36 34 31 29 25 28 28 26 23 22 17 18 17 17 13 11 10 11 11 13 15 18 20
40 39 38 37 36 35 32 30 27 24 25 23 19 18 15 14 14 13 8 7 5 5 6 9 14 17 19
40 39 38 37 35 33 34 32 26 23 21 20 17 15 13 11 11 10 4 4 2 1 6 12 16 18 19
42 40 38 36 37 35 33 31 26 20 18 16 15 12 12 9 9 7 2 2 4 4 6 15 19 21 23

GFSFLT2_250_spd_042.txt.gz
Wind_Speed
115 120 123 127 124 115 107 104 104 103 99 98 99 100 102 103 103 103 104 104 105 109 114 118 123 127 130
123 127 132 125 112 106 99 95 92 92 91 91 91 90 90 92 93 94 96 97 98 98 99 101 104 108 112
130 130 119 111 102 95 90 86 82 81 81 80 78 79 81 81 82 83 84 86 88 90 90 90 92 94 96
125 114 107 99 93 85 85 79 75 75 75 71 69 71 70 73 73 73 74 76 78 80 80 81 83 86 87
111 102 96 91 85 80 76 73 70 69 69 64 64 62 62 64 66 68 68 68 69 69 70 71 74 76 77
100 93 87 82 78 74 71 66 65 62 62 56 59 55 56 55 57 58 59 57 58 58 61 63 65 67 69
91 85 81 76 71 67 62 60 58 57 59 50 53 49 48 50 48 51 51 50 51 53 54 55 58 60 62
82 78 74 68 65 61 58 52 47 48 50 48 49 43 44 43 40 42 44 44 43 44 48 49 51 55 57
75 72 67 61 58 56 51 49 46 41 43 41 43 43 39 40 38 36 37 38 38 40 41 42 44 46 51
69 64 59 56 51 49 48 48 46 43 37 36 35 37 39 29 32 32 32 32 31 33 35 37 38 40 44
64 59 54 50 48 45 43 42 45 40 36 37 34 29 29 32 26 28 27 27 27 27 30 32 33 35 37
58 54 52 48 44 41 40 38 38 41 37 33 30 29 28 25 25 22 23 22 22 24 25 26 27 29 31
52 50 49 48 45 41 37 35 32 34 31 31 28 26 25 23 22 19 17 19 20 20 20 20 20 22 23
48 46 44 42 42 40 35 31 28 27 30 26 25 22 18 19 16 15 15 17 15 14 14 13 13 13 14
46 45 43 40 38 36 34 31 32 26 25 22 21 17 15 15 12 11 13 11 12 10 10 13 13 11 10
43 43 43 42 39 36 33 32 31 27 23 19 17 14 13 12 9 8 10 7 10 6 9 12 10 5 7
44 45 43 40 38 36 33 30 28 21 19 18 14 11 9 7 6 7 6 7 4 7 8 7 2 7 11

GFSFLT2_250_spd_045.txt.gz
Wind_Speed
103 108 115 120 123 121 119 112 104 102 99 98 97 94 94 93 93 93 93 94 94 94 96 99 104 109 114
109 117 124 129 126 118 109 101 96 90 89 89 86 86 86 86 85 85 85 86 86 87 87 89 92 95 99
119 128 131 128 115 106 98 92 87 84 83 80 77 80 78 77 78 78 78 77 77 79 80 80 81 84 88
129 133 127 113 103 93 92 85 81 79 79 72 71 70 68 69 71 71 71 70 70 69 69 70 72 75 78
131 118 108 100 94 88 82 81 76 74 74 64 66 60 61 63 64 65 65 65 63 63 63 64 66 69 72
113 104 99 93 89 82 79 74 71 63 71 56 60 52 54 56 58 58 58 57 57 59 55 55 60 63 66
102 97 92 85 83 78 71 66 61 59 65 53 52 45 48 49 51 52 54 50 49 51 52 51 52 55 57
95 88 83 79 74 70 66 62 54 46 55 54 49 41 43 43 43 44 47 43 42 44 46 46 46 47 50
86 80 76 70 67 64 59 53 52 42 44 44 45 42 39 38 40 38 40 41 37 38 40 42 42 42 44
79 73 68 62 57 54 52 48 46 47 37 41 37 38 37 30 33 33 33 33 35 35 36 37 39 40 41
73 69 62 56 52 46 45 43 44 43 37 38 35 31 34 41 29 25 31 29 29 32 33 34 36 37 38
66 60 56 51 48 44 40 37 36 42 31 30 32 33 32 32 27 25 25 28 26 27 28 28 28 30 33
60 54 49 46 43 37 32 32 27 33 32 27 30 28 29 30 26 27 23 21 21 23 23 23 24 24 26
54 50 48 44 41 42 37 32 26 23 33 29 28 26 24 25 23 23 22 17 18 21 19 17 19 20 22
47 46 46 44 44 45 40 34 29 22 22 31 25 22 22 19 18 19 16 15 16 16 15 15 11 9 12
42 43 46 47 45 42 36 29 23 21 24 23 21 19 18 15 14 12 12 12 11 11 11 7 6 3 4
43 45 47 45 42 37 28 20 19 16 20 20 17 15 13 12 10 8 8 8 7 6 6 5 5 1 3

GFSFLT2_250_spd_048.txt.gz
Wind_Speed
112 116 114 109 107 110 115 120 123 124 121 116 111 103 98 94 93 92 91 90 90 89 88 90 91 92 93
101 101 106 111 116 120 125 126 120 113 105 102 97 92 91 86 85 84 84 83 82 83 82 83 84 84 85
100 106 111 118 122 125 124 113 105 98 93 93 84 83 83 81 81 80 79 76 75 75 75 75 77 78 79
107 111 119 124 123 116 109 100 94 87 86 86 77 77 72 74 76 75 72 69 67 67 68 69 70 71 72
116 122 125 125 115 102 95 91 85 78 82 81 72 71 65 66 69 66 65 64 63 63 62 62 61 64 67
122 124 123 109 101 94 88 85 81 70 73 75 63 63 59 58 60 59 58 57 57 56 56 57 56 55 58
124 119 105 98 94 89 84 80 74 67 64 68 56 56 52 53 54 55 53 52 53 52 50 52 52 50 50
114 102 95 90 86 83 78 74 67 58 53 59 50 53 48 46 48 51 49 49 50 48 46 45 47 47 48
101 94 88 83 78 75 70 64 64 59 48 50 44 51 49 41 43 47 45 46 46 46 44 41 41 43 43
93 85 79 74 68 63 59 60 57 60 47 50 40 41 53 34 37 42 41 40 41 42 43 41 39 40 40
86 79 73 66 60 56 51 50 50 51 50 50 43 38 42 42 32 39 34 38 38 38 37 37 36 36 38
79 72 66 61 58 54 47 45 39 47 52 48 46 39 37 34 39 35 25 31 32 31 31 31 31 33 36
71 66 62 58 54 52 43 39 34 42 48 49 46 38 36 33 38 35 30 25 27 27 27 28 27 29 31
65 61 57 54 50 49 47 41 41 38 41 45 44 38 31 32 37 30 28 28 22 25 26 26 24 26 25
57 54 50 50 49 52 49 45 42 37 31 39 39 35 31 32 32 26 25 25 24 24 23 22 20 21 21
51 49 49 51 51 49 46 41 35 29 29 30 29 27 27 27 23 21 21 20 20 21 19 18 15 16 15
50 51 52 51 50 46 39 31 28 25 25 28 27 25 23 20 17 17 17 17 16 15 15 11 10 10 8

GFSFLT2_250_spd_051.txt.gz
Wind_Speed
115 119 123 125 122 121 114 104 105 110 115 118 121 118 115 111 106 102 99 95 91 87 86 86 86 88 89
119 121 122 123 113 105 106 111 114 118 119 117 113 107 100 97 93 90 86 84 80 78 79 79 78 79 81
114 118 114 110 106 110 113 119 119 116 111 102 99 96 91 85 83 81 79 77 72 72 71 71 71 72 75
113 105 106 108 111 115 119 121 116 104 97 94 88 86 80 77 76 75 76 70 66 63 62 63 65 66 68
105 105 107 113 117 121 117 110 102 91 86 83 78 78 75 72 67 68 69 64 62 59 58 58 57 59 61
106 109 115 120 120 116 103 97 92 81 74 82 71 69 67 64 60 61 60 58 57 56 55 54 52 54 54
112 116 118 119 110 101 96 88 82 78 72 78 64 58 56 56 54 56 55 53 52 53 54 51 50 52 51
117 118 114 102 96 91 85 85 81 72 60 66 60 53 53 45 46 50 53 51 49 51 49 48 49 49 49
118 111 100 92 84 80 79 75 74 71 58 58 51 49 53 42 41 45 50 47 48 48 46 46 47 44 45
107 97 88 82 78 73 68 65 63 65 56 57 50 43 53 43 41 43 46 43 47 42 44 45 44 42 42
94 87 82 77 72 67 60 54 54 55 53 53 52 45 43 56 41 39 42 41 43 39 40 41 42 40 40
85 81 77 71 66 61 54 50 47 52 55 52 54 49 48 50 47 35 36 40 39 35 34 37 37 39 38
81 76 70 65 59 57 51 50 49 51 53 52 51 48 47 47 40 37 32 31 33 31 31 32 33 31 32
74 69 64 59 54 54 55 54 53 49 46 47 46 44 42 39 34 30 31 29 26 26 25 25 26 26 26
65 61 57 55 54 55 55 53 49 45 37 39 41 37 35 32 29 23 22 24 23 21 21 23 23 22 24
60 56 55 56 57 53 48 45 44 39 35 36 35 33 29 28 25 21 19 19 19 19 20 22 22 21 20
57 58 59 55 50 47 43 39 37 32 28 31 29 26 25 22 18 17 15 15 16 17 18 19 17 15 13

GFSFLT2_250_spd_054.txt.gz
Wind_Speed
100 105 108 112 116 119 124 124 124 116 103 104 105 108 111 114 116 115 112 108 101 95 93 91 91 93 93
106 111 115 119 122 121 121 120 108 104 107 110 114 115 115 110 106 100 95 92 89 85 81 80 81 82 82
112 118 122 123 120 119 108 106 108 109 112 114 115 111 104 97 92 89 85 84 80 76 73 73 74 74 75
120 121 121 122 111 106 106 111 116 115 113 111 103 97 92 86 83 79 78 76 73 68 66 66 66 67 68
119 120 115 108 104 108 112 115 120 111 102 102 90 87 79 77 75 73 70 67 66 62 58 58 59 59 61
115 108 105 105 111 114 116 115 110 101 89 91 82 80 71 69 63 61 64 61 59 57 54 52 53 53 54
106 105 109 113 114 113 109 102 98 89 78 82 79 72 62 58 51 52 56 58 54 52 50 49 49 50 48
110 112 114 114 109 102 97 93 90 84 69 69 72 66 59 51 42 42 48 51 51 49 46 45 45 44 45
115 115 111 105 98 92 86 81 81 79 64 61 61 56 58 47 34 37 43 46 46 48 47 46 41 39 40
117 109 101 96 89 81 75 73 69 68 58 57 53 44 55 49 34 40 45 43 45 47 47 44 39 37 40
107 102 96 88 81 77 70 63 59 57 54 54 52 48 49 56 41 36 43 43 46 44 40 39 36 37 41
97 92 85 79 75 69 62 58 52 50 56 53 52 50 49 47 44 38 36 36 39 35 33 32 34 37 38
88 81 76 73 66 62 58 55 57 54 54 54 49 45 41 40 32 30 25 26 29 27 27 29 33 33 33
78 75 71 65 60 56 59 60 58 53 43 47 43 37 33 30 23 20 19 19 22 24 24 26 27 28 29
71 66 63 60 59 56 54 53 49 48 41 37 39 30 26 21 18 16 18 17 16 17 19 20 22 24 24
63 59 59 60 58 54 48 45 43 39 35 32 27 23 19 15 15 14 14 15 14 14 15 15 16 17 19
59 60 59 58 53 49 45 41 36 32 27 25 22 19 14 13 13 12 10 10 10 12 13 14 15 15 15

GFSFLT2_250_spd_057.txt.gz
Wind_Speed
88 92 95 99 103 107 111 115 119 121 123 126 122 117 111 108 105 105 107 108 109 110 110 109 108 105 104
92 97 101 106 108 111 116 120 124 125 123 118 112 110 107 107 109 110 109 108 105 100 94 91 89 88 88
96 101 106 111 113 117 122 124 125 116 113 111 110 110 111 108 107 103 97 95 93 88 81 77 75 75 76
104 108 113 117 120 122 123 120 115 111 111 112 110 109 106 98 93 89 86 84 83 81 75 71 68 69 71
109 113 118 123 122 119 111 111 118 114 111 113 102 99 94 88 80 77 77 77 77 75 70 65 61 61 63
114 119 121 118 112 111 113 115 116 114 103 99 94 94 85 79 72 68 67 66 69 68 64 57 54 53 55
119 119 113 112 112 114 112 110 108 101 90 89 91 86 79 77 65 58 55 55 58 60 59 54 49 48 49
116 111 111 114 114 111 105 101 99 96 82 78 81 80 77 71 54 47 46 48 51 53 53 51 48 43 44
114 115 115 112 106 100 97 94 88 85 76 71 72 68 68 65 47 42 42 47 50 52 50 49 46 42 41
119 116 109 103 99 94 87 81 77 74 69 64 64 58 59 60 42 42 48 52 54 51 49 47 45 46 45
114 107 102 98 93 86 77 71 68 62 56 55 62 59 55 64 46 44 50 52 50 48 46 44 45 47 48
103 100 96 90 82 77 72 64 58 52 55 56 59 56 52 51 47 36 41 39 41 41 41 41 41 43 43
97 93 84 78 75 68 63 58 61 55 51 52 53 48 43 43 37 32 31 33 33 34 35 35 35 37 38
86 79 75 71 66 61 62 59 58 56 41 44 42 37 33 32 26 25 27 30 27 26 28 30 32 33 34
70 69 65 63 64 60 55 52 46 42 36 30 31 25 22 19 20 22 21 22 25 23 21 24 27 28 29
63 59 61 62 59 55 47 40 38 33 28 22 22 18 16 17 17 17 18 17 17 18 17 20 23 22 23
56 59 58 57 52 46 40 34 29 24 21 19 17 15 13 14 15 13 12 12 12 15 17 16 18 21 23

GFSFLT2_250_spd_060.txt.gz
Wind_Speed
72 76 79 83 88 91 95 99 103 107 110 112 114 117 119 122 122 120 117 114 113 113 112 110 109 107 106
73 77 82 87 90 94 99 104 108 111 114 118 120 122 121 117 114 114 112 110 111 112 112 109 107 104 103
77 81 86 93 94 99 104 110 114 118 119 121 117 114 114 115 114 113 111 108 106 103 98 96 93 91 89
83 87 93 98 102 105 110 118 121 121 117 115 114 116 117 115 111 105 97 93 93 94 91 86 82 77 75
91 96 100 105 109 114 116 116 115 114 115 121 116 115 111 105 99 92 87 84 82 83 83 79 73 68 66
100 103 108 112 115 112 108 109 115 121 117 114 105 104 101 98 92 81 73 70 72 76 77 74 67 61 59
108 111 112 110 108 109 111 113 115 113 106 99 97 98 94 91 82 70 67 65 66 67 67 67 63 55 52
113 107 106 110 110 112 113 111 108 103 98 87 88 87 87 88 76 62 58 59 58 58 60 61 57 52 49
108 110 112 115 114 112 107 99 96 94 92 77 79 78 80 82 68 49 49 56 56 56 54 54 51 47 47
116 118 118 116 109 100 94 90 86 82 82 74 73 69 69 74 61 43 51 61 60 55 53 51 48 47 48
119 116 111 104 98 92 86 78 75 73 69 64 69 71 67 63 62 50 52 57 56 51 50 49 48 49 51
109 104 99 95 90 83 77 72 67 62 65 62 61 64 61 57 52 47 48 48 48 45 44 43 44 46 49
98 94 90 85 79 75 70 67 68 62 56 54 57 55 50 48 46 42 41 41 39 40 40 39 39 40 42
89 84 79 75 71 65 66 64 60 56 45 45 48 44 41 42 38 36 35 34 31 33 34 35 34 34 33
73 70 68 64 63 61 58 54 48 46 40 38 37 35 35 33 30 27 26 26 25 26 27 27 28 29 28
63 60 58 59 58 55 52 48 43 39 34 31 30 28 27 25 23 21 20 21 21 19 22 24 24 23 23
54 54 54 52 51 49 43 38 35 32 29 26 23 21 18 17 16 17 18 16 16 16 15 16 16 17 18

GFSFLT2_250_spd_063.txt.gz
Wind_Speed
83 86 87 83 81 80 81 83 86 90 92 95 97 99 102 106 108 111 113 115 117 118 120 121 120 118 116
84 88 82 80 80 81 85 89 93 97 100 102 104 106 110 113 115 117 118 117 116 115 116 117 117 115 114
85 81 79 82 82 86 89 95 100 105 108 108 111 114 116 115 113 114 114 114 115 115 113 111 108 106 104
81 80 83 87 91 94 97 103 108 113 114 110 110 111 114 113 114 115 115 111 108 104 101 99 98 95 93
85 89 93 96 100 104 107 107 108 109 110 113 112 115 117 115 113 107 102 96 93 92 91 91 90 86 82
94 97 101 105 107 106 103 106 108 115 117 117 114 113 108 105 102 97 91 85 82 80 80 83 83 78 72
101 105 104 102 103 107 109 110 114 115 109 108 101 100 98 97 95 89 81 73 70 71 75 77 74 71 68
105 103 105 108 108 111 112 111 109 106 99 93 93 90 90 89 87 81 71 61 55 63 70 68 61 60 59
105 108 110 113 113 111 108 102 97 98 94 80 82 78 78 82 81 75 62 54 56 65 65 57 54 52 52
112 115 117 116 109 102 97 93 88 83 83 74 76 72 68 78 75 72 64 55 57 63 58 54 54 52 52
117 116 111 104 99 97 90 82 76 73 70 64 71 71 69 67 68 63 57 55 53 51 51 50 49 48 48
108 104 100 96 91 86 79 75 69 65 69 64 61 58 57 55 52 49 49 47 44 42 42 42 43 42 41
99 95 90 85 79 76 73 70 69 64 59 53 50 48 45 42 38 39 36 39 35 35 34 33 33 32 32
88 84 78 72 69 65 66 65 61 57 53 48 43 38 35 33 31 32 31 30 28 26 24 22 23 23 24
75 70 66 64 59 60 57 54 50 49 45 39 36 33 31 29 27 26 26 25 23 21 20 20 19 19 19
63 61 57 55 57 52 48 46 44 40 36 34 31 28 26 24 23 21 20 19 19 20 20 19 18 18 19
55 51 50 52 48 45 41 38 35 33 31 30 28 27 24 22 21 20 18 16 15 14 15 17 17 18 18

GFSFLT2_250_spd_066.txt.gz
Wind_Speed
90 93 95 95 95 94 92 89 91 91 85 84 84 85 89 92 94 96 98 101 103 106 108 109 111 112 112
88 93 93 95 93 91 92 93 89 88 90 91 93 96 98 100 103 105 107 109 111 112 114 115 116 116 117
88 91 91 91 89 91 91 91 93 98 101 101 104 106 107 107 105 106 108 111 111 111 114 114 114 113 113
88 85 84 86 87 87 91 97 101 107 112 111 110 109 110 111 112 112 112 112 111 111 110 110 110 109 109
82 83 83 87 91 96 100 104 110 111 111 113 113 116 116 115 113 110 107 104 101 99 97 97 96 96 95
85 88 91 97 102 105 107 105 107 113 114 119 118 117 113 108 103 98 94 91 88 86 85 87 86 85 84
89 95 99 104 103 103 106 108 113 115 111 114 107 104 101 97 92 88 82 77 73 70 70 73 74 76 78
98 101 101 102 104 105 110 114 114 110 102 101 98 93 89 87 84 79 72 65 59 57 61 66 70 70 68
99 100 102 105 108 111 113 110 104 103 94 89 85 79 79 76 74 72 66 61 59 59 63 64 62 58 55
101 104 107 112 113 111 104 99 92 89 83 76 76 72 74 71 68 65 62 56 51 48 50 49 47 47 48
106 111 115 113 107 101 94 86 80 74 71 66 69 69 64 61 57 57 54 49 45 41 40 39 39 40 40
112 112 107 101 95 88 81 74 67 62 67 65 61 58 56 53 49 45 45 41 37 35 31 30 30 32 31
106 100 94 88 81 76 68 64 61 58 57 55 51 50 48 45 43 38 34 33 29 26 24 24 24 24 25
92 87 81 73 66 62 59 57 59 55 44 46 46 42 40 38 36 35 33 31 28 24 21 19 18 18 18
79 73 65 61 55 52 52 52 47 46 44 40 40 39 35 33 31 30 27 25 23 22 21 18 16 15 14
63 59 54 50 48 48 47 42 40 39 39 39 38 35 34 33 30 28 26 24 23 22 19 17 13 12 12
52 48 45 44 46 44 38 35 35 34 35 35 33 33 32 31 32 30 27 24 22 20 18 18 17 15 14

GFSFLT2_250_spd_069.txt.gz
Wind_Speed
79 82 84 85 86 86 85 86 89 91 93 91 87 88 88 86 85 87 88 90 92 94 96 97 98 100 102
83 84 85 86 87 89 90 93 93 94 91 90 89 89 90 92 93 96 98 99 99 100 101 102 104 105 108
89 86 85 88 89 91 91 92 90 92 92 91 96 96 99 99 101 102 101 101 104 105 106 108 108 109 110
78 77 83 86 86 86 85 89 91 96 99 101 104 106 108 107 104 105 108 108 107 106 105 104 103 104 106
75 78 82 80 81 84 87 90 98 103 105 109 109 111 114 113 112 109 102 97 94 94 93 93 93 94 94
74 74 76 80 85 90 95 98 103 108 107 110 114 118 117 111 104 98 93 88 83 80 80 83 85 85 85
73 79 84 89 93 98 101 103 105 108 107 112 115 114 105 99 92 87 84 77 74 72 70 72 74 76 78
82 87 91 95 97 99 100 103 108 114 109 111 111 102 95 83 79 77 74 70 68 66 64 64 66 67 69
90 92 95 96 98 101 104 108 111 112 101 98 96 87 82 71 68 71 69 64 60 61 57 54 56 56 58
92 92 95 98 101 105 108 110 104 99 90 85 82 72 70 69 63 64 62 55 54 52 50 47 44 45 49
93 96 99 102 106 108 102 95 89 83 75 69 69 64 61 60 57 54 54 47 44 42 42 41 41 40 41
97 100 104 105 102 93 87 80 71 64 63 59 59 56 54 51 48 48 43 46 39 36 33 33 34 34 34
101 103 99 91 85 79 68 63 59 51 51 53 51 48 45 43 42 42 40 37 37 33 31 28 27 28 29
95 87 81 75 66 61 58 52 49 47 45 42 41 41 41 36 38 35 35 34 31 30 27 25 25 25 23
78 73 66 59 53 50 48 48 47 46 42 34 32 35 38 41 34 35 33 31 31 27 25 23 20 20 20
65 58 53 48 44 44 45 44 39 35 35 34 35 30 26 29 36 29 25 26 29 27 25 23 23 18 19
51 47 43 42 43 42 41 35 30 30 31 33 32 34 32 26 26 29 26 21 17 20 23 20 18 20 19

GFSFLT2_250_spd_072.txt.gz
Wind_Speed
77 80 82 90 91 92 98 100 97 95 90 87 85 83 83 85 85 84 84 83 84 85 88 91 94 95 96
78 87 93 96 97 99 100 98 87 83 81 81 83 86 86 85 85 86 88 89 91 93 95 96 95 95 97
81 86 90 93 88 88 88 82 82 82 82 84 87 86 87 89 92 93 91 91 93 98 102 104 104 104 105
78 84 81 81 82 81 78 79 82 85 85 87 90 92 95 96 96 93 96 100 104 107 108 104 101 99 98
78 79 84 79 72 74 76 80 85 88 88 95 96 100 102 100 101 102 104 105 102 101 98 93 88 90 90
78 78 75 74 76 79 81 85 89 95 95 100 101 106 107 109 109 104 98 92 91 91 85 79 75 74 76
66 72 75 79 81 85 90 92 96 100 98 100 106 110 111 110 100 91 87 85 83 80 74 72 69 70 70
73 76 80 84 87 90 94 97 99 101 99 101 110 110 107 97 90 82 76 74 72 71 70 70 66 64 62
79 83 88 91 93 94 96 97 100 105 103 106 106 98 93 87 76 68 66 65 65 63 62 61 61 59 57
86 89 91 93 94 96 98 100 101 102 96 92 89 78 75 74 62 59 60 59 56 55 54 53 52 53 51
88 91 93 95 97 99 99 96 89 84 78 75 71 67 63 62 62 58 54 53 52 49 49 48 47 45 45
91 94 97 98 97 90 83 78 73 69 66 63 60 56 57 59 55 51 47 45 48 46 42 43 42 41 39
96 94 90 84 80 75 70 66 60 57 55 54 53 52 49 47 50 44 43 39 41 42 39 39 37 36 37
82 79 76 69 67 65 59 56 51 47 48 48 45 41 41 42 44 44 36 39 37 37 32 34 35 29 34
73 65 62 59 55 53 50 47 46 45 41 36 34 32 29 36 41 39 39 37 37 37 34 32 32 31 28
61 58 53 49 46 43 43 42 40 37 36 34 31 27 26 30 31 31 32 31 31 31 31 30 29 30 29
54 49 45 42 40 40 40 36 32 30 31 31 29 31 28 27 27 27 29 29 28 29 31 32 32 29 28

GFSFLT2_250_spd_075.txt.gz
Wind_Speed
101 103 102 103 99 97 90 88 85 91 90 91 91 91 88 86 85 77 74 76 76 77 80 82 84 85 86
102 102 102 100 97 93 86 81 82 86 87 87 86 86 81 75 75 76 77 77 81 84 86 89 92 94 95
95 96 97 93 84 82 83 84 85 78 78 80 82 79 78 80 81 82 83 85 87 89 92 92 92 94 96
83 86 84 81 77 76 77 77 81 81 78 77 79 80 84 86 87 87 86 86 86 87 91 96 100 100 98
78 77 76 75 74 73 72 71 75 77 79 83 85 88 93 93 91 88 87 89 92 97 103 105 101 95 90
68 65 63 65 67 70 74 77 81 86 84 89 89 92 92 91 91 93 95 97 100 104 99 92 87 83 79
58 62 66 70 73 78 81 83 86 88 86 90 92 94 97 98 100 101 98 95 91 87 83 79 73 70 67
63 68 73 77 80 84 86 89 91 92 89 93 99 100 104 101 96 89 82 79 77 73 69 66 62 63 62
69 73 78 81 85 88 90 93 96 99 97 100 100 96 93 84 80 74 70 65 62 61 60 59 58 60 59
77 82 86 89 91 94 96 99 99 99 92 90 86 79 78 73 66 58 56 52 54 54 54 54 54 57 55
83 87 90 93 95 95 93 89 85 83 80 77 73 68 62 60 58 49 50 47 46 47 51 52 49 49 51
88 91 92 88 83 81 79 77 74 70 66 62 59 54 52 53 55 52 48 40 41 41 44 47 46 47 47
81 81 79 76 74 73 68 65 62 58 54 54 49 47 48 48 50 46 43 36 37 38 39 42 43 43 44
78 76 72 69 64 61 59 55 51 47 43 46 45 44 41 38 40 42 40 41 37 38 37 38 39 40 37
76 71 64 59 56 54 50 46 42 41 40 40 39 35 33 34 35 36 36 36 36 36 36 35 35 40 37
71 65 57 54 51 46 43 39 40 39 38 35 30 27 28 29 29 30 29 31 30 32 33 36 35 35 39
66 60 56 49 45 41 36 36 36 36 32 30 27 27 26 26 25 25 27 28 29 24 27 30 33 28 31

GFSFLT2_250_spd_078.txt.gz
Wind_Speed
92 93 97 97 104 104 105 105 110 106 106 106 104 95 82 75 74 77 79 74 75 76 75 75 73 73 73
92 93 94 93 99 103 100 100 105 104 102 100 93 81 79 76 79 78 74 73 72 74 75 76 78 80 81
93 93 93 93 94 96 98 99 98 96 94 84 80 79 75 74 74 73 73 74 75 77 80 83 85 88 89
81 85 87 87 86 87 88 87 86 80 77 75 75 74 75 76 78 78 80 81 83 85 86 88 88 89 90
67 67 67 70 72 72 71 71 73 72 72 76 76 79 83 82 82 82 82 81 81 82 85 88 92 94 94
43 46 50 53 56 59 63 68 73 75 76 83 79 85 84 84 84 83 84 84 85 88 92 94 93 90 87
44 48 54 58 62 66 69 73 76 78 80 88 84 88 88 89 88 88 87 87 86 89 85 82 80 79 78
53 57 61 66 70 74 77 81 84 85 85 93 90 94 94 89 86 84 81 80 80 76 73 72 69 66 66
64 68 72 75 79 81 84 88 94 91 90 91 86 88 87 80 78 76 73 69 66 63 61 60 58 59 60
73 75 77 79 83 87 90 90 84 80 78 82 76 73 79 69 63 61 60 56 53 53 51 53 54 54 53
76 77 80 85 88 87 80 76 76 75 72 71 69 62 59 62 53 48 48 43 43 45 45 46 45 46 48
77 81 82 80 75 74 75 73 69 66 59 57 59 55 49 46 46 42 41 36 40 37 36 36 37 39 40
79 73 71 72 73 73 70 65 59 54 53 51 50 46 41 43 44 41 38 29 32 32 32 32 33 36 36
69 71 73 73 71 69 62 56 53 47 42 43 44 40 39 38 38 35 31 30 28 29 29 28 31 34 36
70 72 74 70 66 59 55 52 46 40 36 36 38 37 33 32 28 29 27 27 26 26 30 28 24 30 33
71 72 72 68 61 53 50 45 41 36 35 35 34 31 27 25 25 24 25 23 21 23 25 30 30 30 33
71 71 72 65 57 51 44 39 36 34 34 34 30 26 23 22 22 20 20 21 21 21 22 24 26 26 27

GFSFLT2_250_spd_081.txt.gz
Wind_Speed
91 91 91 89 90 87 90 87 85 89 94 97 101 109 107 103 108 113 110 101 99 84 76 73 71 70 72
69 79 78 83 81 85 84 86 87 86 95 95 101 104 104 105 104 105 106 94 84 78 73 72 70 68 67
54 56 61 65 72 79 81 84 89 88 93 92 97 96 96 94 89 87 82 78 74 72 70 71 73 74 76
29 33 37 43 50 56 62 67 68 68 69 70 70 72 72 71 71 72 72 73 75 76 78 80 81 81 81
33 33 34 36 39 42 47 51 54 57 62 63 66 70 70 72 74 75 76 77 79 81 82 83 85 86 87
38 39 41 44 47 50 55 59 62 63 69 68 74 75 76 77 78 78 80 81 83 85 87 88 89 90 91
46 48 51 55 59 63 65 66 68 69 76 75 79 81 82 81 81 79 78 79 79 79 80 82 81 79 80
58 60 63 65 67 69 71 73 75 77 82 87 84 86 83 77 76 75 77 78 78 77 74 73 72 71 71
63 65 67 69 70 72 77 81 81 79 76 75 73 78 80 75 72 71 71 69 69 66 64 62 61 61 60
66 67 68 70 74 77 81 77 73 72 71 75 73 73 77 67 61 58 58 58 57 55 54 51 51 52 49
68 69 72 76 78 79 76 72 72 70 70 73 71 65 61 62 51 48 49 45 44 44 44 44 44 44 43
69 71 76 78 76 70 69 72 71 70 69 65 63 58 54 50 44 37 37 35 37 38 37 37 37 38 40
72 74 74 70 67 69 71 71 68 66 62 59 57 53 44 40 38 34 33 28 34 31 31 32 32 35 34
75 73 67 67 68 71 71 70 68 61 54 52 49 45 40 35 37 34 30 28 26 29 28 27 25 28 29
75 69 64 67 68 69 70 70 64 58 49 42 41 39 34 36 35 33 25 26 26 25 25 21 21 25 27
65 64 67 66 67 67 69 65 59 52 43 38 37 33 32 32 32 26 26 24 22 21 19 20 18 23 23
66 65 66 66 66 68 66 61 53 46 37 35 34 33 31 27 28 25 24 23 19 15 16 17 16 19 23

GFSFLT2_250_spd_084.txt.gz
Wind_Speed
78 75 64 57 55 57 64 72 75 76 82 82 82 83 85 85 90 89 86 98 104 102 104 104 109 107 98
70 63 54 45 41 39 42 47 54 62 67 74 81 81 83 88 88 87 88 92 99 107 108 105 103 104 93
62 58 51 44 39 35 33 31 34 36 40 51 57 67 71 73 76 79 85 85 86 84 86 79 72 70 70
60 55 51 47 45 44 42 41 42 44 46 48 53 55 58 61 63 65 67 68 69 71 73 73 74 74 74
59 56 54 52 50 50 51 50 51 53 54 56 60 61 64 67 69 72 73 75 77 79 79 80 80 80 80
60 58 58 57 57 57 58 59 59 60 61 63 67 68 70 70 71 73 75 77 79 81 83 84 85 87 88
62 62 63 62 61 61 62 64 66 69 73 74 76 77 76 74 72 70 73 75 76 76 76 78 79 80 82
65 65 65 64 64 66 68 70 71 74 80 82 78 77 70 66 67 70 73 74 74 74 74 74 73 73 72
67 67 67 67 69 71 75 76 76 77 76 75 72 74 71 67 66 67 68 67 66 65 64 61 60 59 57
68 68 68 70 73 76 79 80 79 75 73 75 73 72 73 66 60 57 57 56 56 54 53 52 51 51 49
69 69 70 72 76 77 77 73 70 70 72 73 71 69 69 64 52 47 49 49 50 48 46 44 42 41 40
70 70 73 76 76 74 73 70 70 71 70 68 69 69 65 59 54 43 39 39 40 39 39 37 37 36 36
71 72 75 77 74 72 70 70 69 68 66 66 68 68 62 55 50 37 34 29 34 34 34 32 32 31 30
71 75 77 76 69 69 68 69 69 66 65 64 64 64 59 48 42 37 30 30 28 32 29 28 27 29 30
73 76 75 69 67 67 68 69 69 69 66 61 58 57 52 42 36 35 31 31 27 28 25 25 26 29 26
75 75 69 68 67 66 68 68 69 69 66 60 53 52 45 35 34 35 31 28 26 25 25 23 25 25 21
76 71 68 67 66 67 67 68 69 68 62 52 48 47 45 32 24 38 27 27 24 25 25 24 21 21 21

GFSFLT2_250_spd_087.txt.gz
Wind_Speed
87 75 69 69 69 69 68 68 65 60 54 46 40 38 39 47 61 72 75 80 89 88 93 90 92 93 94
77 69 65 68 67 66 66 65 63 60 56 51 49 47 43 42 45 46 52 61 68 76 82 84 87 92 95
69 62 65 68 66 66 65 64 63 60 58 54 54 52 52 53 55 56 57 59 59 62 69 74 75 77 81
61 62 67 68 67 67 66 64 64 64 61 60 60 59 58 59 61 62 64 67 70 72 74 75 77 78 77
61 65 68 68 69 69 67 67 67 68 67 68 67 66 66 66 67 68 70 74 76 78 79 80 81 82 82
63 66 69 69 70 69 70 71 71 71 71 72 73 74 73 72 72 71 73 73 73 75 78 80 82 84 85
64 67 69 69 70 71 73 74 73 74 75 76 77 75 71 69 69 69 69 71 72 72 73 73 73 74 75
66 69 69 71 72 73 74 75 75 76 79 79 77 75 70 69 68 67 67 68 70 72 72 72 70 68 67
68 69 71 72 73 75 77 77 77 78 81 81 77 76 72 69 65 61 60 63 68 70 69 65 60 57 57
69 70 72 73 75 78 78 78 78 79 77 76 75 74 77 70 64 58 58 58 61 60 57 53 49 49 48
68 70 73 75 77 78 77 77 78 74 73 74 74 75 74 72 68 59 52 47 51 52 51 44 40 40 38
68 72 75 78 78 77 77 78 76 72 71 71 72 73 71 71 70 63 50 41 43 43 42 40 35 33 33
70 73 76 77 76 77 79 80 75 72 71 70 71 70 68 69 67 61 50 38 34 39 36 34 32 32 31
72 76 76 76 76 78 80 78 73 70 69 68 68 67 69 67 60 55 45 41 31 33 32 31 31 30 28
73 76 75 74 76 79 77 74 72 71 70 66 63 65 65 60 55 47 46 38 33 28 31 28 29 27 25
73 76 74 76 78 76 73 71 70 70 70 67 64 63 59 56 48 46 43 37 29 28 31 27 26 26 23
74 75 74 77 78 75 71 69 70 69 69 65 63 58 58 57 46 33 44 33 27 29 28 25 26 26 24

GFSFLT2_250_spd_090.txt.gz
Wind_Speed
88 87 91 94 84 74 62 59 61 65 66 64 63 63 63 63 61 59 56 54 53 53 53 57 67 75 81
85 89 96 85 74 65 58 59 63 68 66 66 64 63 63 64 63 63 62 61 60 60 60 61 62 62 66
90 94 85 74 66 59 58 61 66 69 68 68 67 66 67 66 66 65 65 66 67 68 68 68 68 67 68
94 83 75 68 61 59 60 65 69 71 70 69 69 69 70 69 68 67 68 70 70 70 71 73 73 72 72
88 75 70 64 61 60 64 69 71 72 72 72 72 72 72 70 70 72 72 72 68 66 65 65 68 72 74
75 71 66 62 61 64 69 73 73 74 74 74 74 75 74 72 73 72 69 66 66 66 65 64 64 66 68
70 69 64 62 64 68 71 74 76 76 76 76 79 76 74 76 74 69 68 68 67 67 66 64 65 66 66
67 65 61 64 67 70 73 76 76 79 80 79 77 75 74 76 71 69 69 70 69 68 66 66 65 64 64
66 63 64 66 68 71 75 77 79 81 82 79 74 77 76 72 68 68 69 69 68 66 67 68 65 61 58
64 64 64 65 69 73 76 80 81 81 79 77 76 79 77 71 69 68 68 66 64 64 67 68 64 58 52
64 63 64 67 70 75 78 81 80 79 77 79 78 74 74 73 72 69 65 62 61 60 59 61 58 52 44
63 62 65 68 72 77 80 82 81 78 78 79 77 73 73 73 75 70 66 64 58 51 49 51 48 43 37
61 61 65 69 73 78 80 83 80 78 78 75 73 73 71 71 69 68 65 65 53 47 45 46 41 39 34
57 62 67 70 74 79 81 82 80 78 78 74 72 71 71 70 67 64 61 59 56 46 43 41 37 35 32
60 64 68 72 75 78 80 80 79 80 76 71 68 69 70 69 67 62 58 57 50 45 40 37 31 33 31
61 66 69 74 78 80 80 79 79 77 75 73 67 66 67 68 61 56 54 53 50 40 37 34 27 32 31
64 68 72 76 80 82 79 78 77 75 75 70 67 65 66 67 69 51 48 44 44 40 31 32 28 32 29

GFSFLT2_250_spd_093.txt.gz
Wind_Speed
101 98 94 95 94 87 89 95 81 74 67 60 58 59 63 65 65 63 59 58 58 57 56 54 52 52 52
97 93 94 93 86 88 91 88 76 69 63 60 60 63 66 68 67 66 63 63 63 62 59 58 58 59 59
93 96 92 85 87 91 92 78 73 65 62 61 65 68 70 70 69 68 68 68 68 66 63 62 64 65 64
96 91 83 84 90 93 80 72 70 64 62 66 69 71 72 72 72 71 72 72 68 64 65 64 61 60 60
89 80 82 88 93 80 73 70 66 65 66 70 71 73 74 74 74 73 71 68 66 66 66 61 58 56 56
78 81 88 92 82 75 70 67 66 67 68 71 74 74 76 77 73 69 67 69 69 66 62 58 58 58 57
80 86 92 81 75 69 67 67 68 69 70 74 76 76 78 75 71 68 70 70 67 63 62 60 60 59 58
85 90 81 76 70 67 67 67 67 70 73 75 77 78 78 76 70 70 70 67 66 66 64 63 63 62 59
84 78 73 69 67 66 65 65 68 70 74 77 78 81 80 76 71 71 67 66 67 66 65 64 64 62 61
76 71 67 66 67 64 64 65 66 70 76 79 79 82 82 77 72 67 64 65 66 64 63 65 64 63 59
71 68 66 65 63 62 63 64 67 71 76 78 81 82 80 80 74 66 65 64 63 61 62 63 62 59 59
63 61 60 60 60 60 62 65 68 73 75 79 82 81 80 81 78 70 67 64 59 56 58 57 55 53 55
56 57 57 58 58 61 63 66 71 74 77 81 82 81 80 78 77 73 70 66 59 58 56 54 50 48 51
54 53 54 56 59 62 65 71 74 76 79 81 82 81 80 76 74 72 69 64 63 59 57 54 45 44 47
50 52 55 58 62 65 69 74 77 80 81 80 80 79 78 76 74 71 67 62 60 59 53 54 43 41 43
51 54 57 61 65 67 71 75 78 83 85 82 78 76 73 75 72 69 65 61 58 57 52 53 43 32 40
53 57 61 64 67 70 73 76 81 86 86 81 77 73 72 72 75 68 61 57 54 52 47 48 47 32 35

GFSFLT2_250_spd_096.txt.gz
Wind_Speed
88 87 90 94 95 90 91 91 93 92 85 89 89 79 73 66 59 56 57 59 60 59 59 57 55 54 53
88 90 92 89 93 90 92 92 89 86 85 93 82 76 71 67 62 61 61 64 64 64 64 62 59 57 55
89 89 88 87 86 90 92 89 88 85 89 90 80 74 70 67 65 65 66 68 67 65 64 60 57 55 53
95 92 86 85 90 91 88 83 85 88 93 82 75 72 70 68 68 68 69 71 69 66 63 59 58 59 58
85 84 81 85 86 87 80 82 86 90 82 76 73 71 69 69 71 71 72 73 71 66 62 60 61 59 55
79 80 85 82 85 78 81 86 89 82 74 73 72 70 70 71 72 74 75 75 73 66 64 62 59 56 55
81 79 82 84 77 80 86 88 81 75 73 72 70 69 70 71 73 74 77 76 72 68 65 60 57 57 56
76 79 78 75 80 85 83 80 76 75 72 69 68 69 70 72 73 76 77 76 72 70 66 61 60 58 56
70 72 76 80 85 79 78 77 73 70 67 67 67 68 71 73 76 78 78 77 75 73 68 64 62 59 57
71 75 80 81 78 75 72 67 65 65 65 65 66 69 71 75 78 79 77 75 74 72 70 68 64 62 60
75 79 75 73 70 67 65 63 61 61 63 66 67 71 75 80 81 81 77 74 70 70 69 69 67 64 62
72 71 68 67 63 60 58 57 58 60 63 67 71 74 79 82 84 81 76 72 67 65 67 67 63 62 60
65 61 60 58 56 55 55 57 60 62 66 69 73 77 80 83 87 82 78 76 69 65 67 66 62 58 57
57 55 53 50 52 55 57 60 64 65 69 73 75 78 82 85 86 82 78 76 73 69 69 69 64 59 55
49 49 50 53 54 56 60 65 67 69 70 71 75 80 85 86 83 80 78 77 74 70 68 69 67 60 54
48 48 49 51 54 58 63 65 68 69 71 74 77 82 81 81 80 76 75 74 72 69 66 63 66 57 49
47 49 52 54 57 61 64 66 68 70 74 78 81 79 79 78 78 73 72 72 67 63 56 53 53 52 44

GFSFLT2_250_spd_099.txt.gz
Wind_Speed
125 124 116 109 100 101 95 92 87 82 82 85 87 89 81 82 85 76 70 66 60 54 52 53 52 52 52
124 112 110 103 98 94 92 85 80 81 85 87 88 83 82 84 83 73 68 67 63 59 56 56 54 52 53
113 107 101 97 100 98 87 82 78 82 85 86 87 81 84 86 77 72 69 68 65 63 60 59 58 57 56
107 99 98 97 92 87 81 76 80 84 86 85 79 83 86 80 75 73 70 68 66 63 62 63 62 59 58
99 92 93 89 85 81 74 79 83 83 83 80 83 86 80 78 75 70 69 68 66 64 65 67 66 63 59
91 84 84 78 75 73 77 80 82 77 79 83 86 80 78 74 69 67 67 66 66 67 69 70 69 66 62
80 77 72 71 72 75 76 75 73 78 83 84 78 74 71 68 66 66 64 66 68 71 73 72 72 69 64
71 67 66 69 70 72 72 74 78 82 80 75 72 69 68 66 65 65 66 69 72 75 76 76 74 68 62
65 64 67 67 70 71 73 77 78 74 71 68 66 66 65 66 67 68 70 73 76 79 80 79 74 70 65
60 62 65 69 70 73 76 73 70 66 65 63 62 63 65 67 69 73 75 77 78 80 80 77 73 71 66
60 60 61 66 71 71 69 66 62 62 60 61 62 63 66 71 73 75 76 77 79 79 77 74 72 70 67
54 59 64 67 62 60 58 56 56 57 61 61 63 65 69 73 75 76 77 78 77 75 73 73 72 71 70
58 61 62 57 56 55 52 52 53 55 58 61 65 69 72 73 75 77 78 79 75 74 72 72 71 70 68
59 57 53 54 53 50 48 49 52 56 59 62 67 71 72 74 77 80 78 78 78 74 73 73 72 69 64
54 50 50 47 46 47 48 52 55 59 62 64 69 71 73 76 80 79 79 77 74 74 72 73 70 59 57
50 48 47 46 47 49 51 54 58 61 65 67 71 73 76 78 77 76 74 72 72 70 67 63 64 54 52
47 48 47 47 50 52 54 56 61 63 67 69 72 74 77 75 75 71 72 71 69 67 60 57 53 53 50

GFSFLT2_250_spd_102.txt.gz
Wind_Speed
111 114 116 120 121 128 132 122 116 111 104 101 87 81 75 77 81 82 79 76 78 72 64 59 53 46 45
119 119 121 127 131 128 121 116 109 107 97 88 82 76 75 80 82 78 77 80 76 67 61 55 52 49 47
126 128 127 127 122 114 115 109 104 93 87 80 77 73 78 80 75 78 80 75 68 61 58 55 53 51 52
127 124 120 117 116 110 108 101 92 84 79 75 73 75 77 74 78 80 75 69 63 60 57 55 55 55 56
118 114 113 108 104 103 95 86 82 76 72 73 73 73 74 79 79 73 68 62 60 58 58 59 59 60 62
115 110 107 102 92 87 81 80 75 70 69 71 72 75 77 79 71 66 62 60 59 60 62 63 65 67 67
105 97 94 87 82 77 75 68 66 65 68 71 73 75 76 69 65 62 60 60 62 64 68 69 69 69 68
89 85 79 73 71 69 64 61 61 66 67 69 72 70 64 61 59 60 60 61 65 68 70 70 70 71 70
75 71 69 67 64 59 59 58 61 61 66 65 61 58 56 57 58 59 62 65 69 71 71 72 73 72 68
66 64 62 59 57 56 57 56 59 63 63 58 56 53 54 55 59 61 64 68 69 70 73 75 72 68 66
58 58 54 53 54 51 52 58 62 59 55 53 48 49 52 56 60 63 66 68 69 73 77 75 69 67 66
52 51 51 48 48 50 55 59 56 53 47 45 48 51 55 59 63 65 69 70 73 76 77 72 69 66 65
47 49 44 48 49 54 56 53 50 47 46 47 49 52 56 61 66 68 72 72 75 76 73 71 67 63 63
43 42 46 48 52 56 53 49 48 47 47 50 53 55 59 63 68 71 72 74 77 72 70 70 64 62 59
42 45 48 51 54 53 50 48 47 48 49 52 55 57 62 66 70 72 74 74 73 71 68 69 63 57 55
44 48 49 53 53 50 50 49 49 50 52 55 57 60 64 67 71 74 73 74 71 67 64 64 63 53 50
46 50 51 52 50 50 50 51 52 52 54 57 59 62 66 69 73 73 74 72 69 66 63 62 60 52 50

GFSFLT2_250_spd_105.txt.gz
Wind_Speed
107 108 104 110 116 122 122 120 118 116 123 119 111 109 102 90 82 73 67 67 68 70 71 70 61 53 48
111 113 115 120 120 117 120 122 116 121 114 112 110 98 86 83 73 68 65 67 71 71 71 62 55 50 47
116 117 116 117 122 124 123 119 116 112 112 107 96 86 81 74 69 63 66 68 71 72 62 56 51 49 48
120 124 129 126 120 118 117 113 112 111 105 92 85 77 72 64 62 65 67 69 70 60 55 53 53 52 52
128 123 119 117 115 114 114 111 109 96 87 81 73 70 63 61 63 63 66 63 55 52 53 55 55 56 57
121 120 115 115 113 112 103 96 85 80 74 72 67 61 60 60 60 62 57 54 52 53 55 57 58 61 61
116 116 114 111 102 97 87 80 76 71 68 64 60 58 58 57 61 56 54 50 50 53 55 58 61 64 63
113 109 102 97 89 82 76 73 68 64 61 56 55 55 56 58 54 51 47 48 51 55 58 62 65 66 66
94 88 84 80 75 72 67 62 61 57 54 51 51 55 57 52 49 46 47 51 54 57 61 65 68 69 68
82 79 73 69 66 62 59 57 53 50 48 49 54 57 51 49 45 46 49 53 56 60 64 68 70 71 67
71 67 64 61 56 55 52 49 48 44 47 51 56 53 49 46 45 48 51 56 60 63 67 71 72 71 65
61 57 55 53 51 47 46 47 44 45 49 53 55 51 49 48 48 50 53 58 62 65 69 73 73 70 63
54 52 50 49 46 44 43 41 43 47 50 55 53 50 50 50 51 52 55 59 62 66 69 73 74 68 63
49 48 47 46 43 41 40 41 45 48 52 52 51 51 52 53 53 54 58 61 63 66 71 74 72 67 63
45 44 43 41 39 41 40 43 45 48 51 51 51 52 54 54 55 56 59 61 65 67 70 74 70 65 61
41 39 38 38 40 41 43 44 46 48 50 50 50 51 53 54 56 56 58 61 64 66 69 74 71 64 59
38 38 40 41 41 43 43 46 47 49 50 51 53 54 56 57 55 55 58 60 64 66 68 71 69 64 59

GFSFLT2_250_spd_108.txt.gz
Wind_Speed
115 112 111 110 108 109 106 113 102 109 114 119 114 110 109 109 103 92 82 72 67 62 57 57 58 61 56
109 106 108 108 108 107 93 104 111 109 118 121 114 110 106 103 89 82 73 68 64 58 55 55 56 53 49
107 110 113 103 114 107 114 114 113 115 123 113 111 107 104 91 80 73 67 64 58 55 54 54 52 50 46
115 114 116 114 115 120 121 120 122 120 109 110 106 102 86 79 71 67 63 59 55 53 55 52 49 45 45
113 115 118 118 120 118 118 113 109 108 106 103 95 84 77 70 64 61 57 53 52 54 51 49 46 46 48
111 113 114 113 111 109 109 108 104 104 102 88 81 75 67 61 58 54 51 51 53 51 48 45 47 47 50
108 108 108 109 107 107 105 104 101 90 83 77 71 64 60 55 51 48 48 52 51 48 45 46 47 50 54
105 104 103 104 103 99 93 88 83 78 72 67 62 57 52 47 46 46 50 49 48 46 47 49 50 53 57
99 96 93 91 88 85 81 76 71 69 63 59 56 50 44 43 43 47 50 48 46 47 49 50 53 56 59
88 86 85 82 78 74 70 66 63 60 56 53 48 42 39 42 45 49 48 48 49 50 51 52 55 58 61
80 77 74 70 66 64 62 59 55 52 51 46 42 39 39 43 46 48 49 49 51 52 52 54 56 59 62
71 67 64 60 57 55 54 52 49 48 45 41 38 37 41 43 46 48 50 50 52 53 54 56 57 60 61
58 57 55 53 53 50 49 48 45 42 40 36 37 39 41 43 46 47 47 49 51 54 55 56 57 59 61
48 46 48 47 46 45 45 42 43 39 38 37 38 41 43 45 46 47 47 47 52 54 55 56 55 58 60
44 43 44 43 41 41 40 41 41 38 37 38 41 43 45 47 48 50 50 52 53 55 56 57 53 57 60
40 39 39 39 37 37 39 39 40 38 40 40 42 45 48 49 51 51 54 56 57 59 58 59 54 54 59
38 38 37 37 38 39 41 39 40 42 43 43 45 48 50 52 54 54 57 61 61 62 60 58 57 55 58

GFSFLT2_250_spd_111.txt.gz
Wind_Speed
118 115 116 116 118 116 115 111 108 107 103 107 105 108 109 109 105 98 94 91 89 75 65 58 54 49 47
113 113 114 114 114 112 110 109 108 108 105 106 108 107 104 101 97 93 94 83 74 67 59 54 51 47 46
109 111 111 111 111 109 110 108 106 105 104 101 102 102 99 96 95 92 83 73 67 60 54 51 47 45 44
108 106 107 109 108 108 107 107 103 102 101 101 100 98 98 94 90 81 72 66 60 54 51 46 44 45 41
109 109 108 108 108 106 104 102 100 99 100 99 97 96 94 86 78 71 63 58 55 51 46 43 44 43 39
104 103 103 103 102 101 100 100 99 97 98 98 95 87 82 76 69 61 56 51 48 44 41 43 43 41 38
102 102 101 100 100 100 99 99 98 98 94 88 82 79 72 66 60 54 48 46 43 40 41 43 42 40 41
103 102 102 101 99 98 97 95 90 87 82 79 75 70 62 58 53 46 42 42 40 40 42 42 41 42 45
100 98 96 94 92 89 87 85 83 79 74 69 64 59 55 51 44 40 39 38 38 41 42 41 42 44 47
92 91 88 87 86 84 81 77 73 68 63 59 55 50 46 42 38 36 35 37 39 40 41 42 44 46 49
88 85 83 81 79 77 72 67 63 59 55 51 48 42 39 37 36 33 35 38 39 38 40 39 40 43 47
81 79 76 72 67 62 58 54 52 49 46 42 39 38 36 36 34 34 36 40 39 40 41 41 44 46 48
68 64 61 55 51 48 46 44 42 40 38 36 36 34 35 35 33 34 37 40 41 43 43 45 46 49 51
55 53 50 45 43 42 40 39 36 34 33 34 35 35 36 36 34 36 39 40 43 45 44 47 49 52 54
47 45 42 39 38 37 35 34 32 33 34 34 35 38 38 38 37 39 40 40 45 47 49 52 51 55 56
43 41 39 36 35 33 32 30 30 32 34 36 40 42 41 40 40 41 42 44 45 48 52 55 54 51 56
40 39 38 36 35 33 32 33 33 34 36 39 41 41 40 42 45 44 45 48 48 51 54 55 56 53 53

GFSFLT2_250_spd_114.txt.gz
Wind_Speed
116 119 120 121 121 120 117 110 107 104 103 102 102 101 100 100 97 90 87 87 86 84 77 68 62 54 47
126 127 129 124 120 115 111 111 109 106 105 104 99 97 95 95 90 87 86 84 86 80 71 63 56 49 42
130 122 119 117 116 114 113 107 105 106 104 100 97 94 92 90 88 86 85 83 79 71 64 58 51 44 40
119 117 115 112 110 108 105 103 102 101 98 96 94 92 89 88 87 86 83 77 72 65 60 51 44 40 38
114 112 109 106 104 102 101 98 98 96 95 95 92 91 90 90 86 81 76 71 66 59 52 44 38 38 37
109 108 106 103 102 100 99 98 96 95 96 94 94 91 87 82 78 73 71 65 59 52 46 38 36 36 37
108 107 104 103 100 98 98 98 97 95 93 90 87 83 79 76 72 68 63 57 51 45 37 34 34 34 37
102 101 99 98 96 95 94 92 90 87 84 82 80 78 74 71 66 60 55 50 44 36 33 33 32 34 37
94 92 90 89 88 88 86 85 84 82 79 77 75 72 67 63 57 52 47 43 36 31 32 32 31 33 35
88 87 87 87 87 86 85 81 79 76 73 71 67 61 57 52 49 43 39 35 29 30 32 30 30 32 33
85 86 86 85 83 81 78 76 72 66 62 58 54 49 45 42 39 36 31 29 31 32 32 30 31 34 35
82 82 83 80 78 74 69 63 57 54 50 46 42 39 37 35 32 30 29 31 33 32 32 31 32 35 36
79 79 77 72 68 60 55 50 48 46 43 38 37 34 32 30 30 30 30 33 33 32 34 33 34 36 39
72 67 63 59 54 51 47 44 41 38 35 34 32 30 29 30 31 31 33 34 34 35 36 35 35 37 39
61 57 56 51 48 44 41 39 36 35 33 30 31 30 31 32 33 34 35 37 38 39 38 38 38 40 43
55 53 51 47 44 40 38 37 34 33 31 32 34 34 34 35 35 37 38 41 42 42 43 43 41 43 47
53 51 49 46 43 39 36 35 34 34 32 34 35 36 38 38 38 38 39 41 42 44 46 47 47 45 50

GFSFLT2_250_spd_117.txt.gz
Wind_Speed
98 99 99 107 107 112 123 131 127 125 119 114 109 101 98 93 91 89 87 85 80 76 76 74 71 66 58
110 111 111 110 117 123 127 133 130 121 115 109 105 100 95 92 88 86 84 82 79 78 75 72 67 60 55
114 118 121 125 130 133 136 134 123 114 110 106 102 98 95 90 86 84 82 82 79 77 72 68 62 57 51
127 127 129 134 137 138 133 118 113 110 106 101 99 96 92 90 87 84 82 79 75 72 66 62 58 53 46
135 134 135 140 138 127 120 115 110 105 101 97 94 92 89 85 84 80 76 73 70 64 61 59 54 47 42
139 145 143 137 128 122 113 110 102 97 94 91 86 83 80 78 76 72 70 68 65 61 58 54 47 42 38
149 144 135 130 120 112 105 99 94 92 87 84 81 79 76 74 73 71 69 65 61 55 51 47 41 37 33
142 135 126 115 109 102 94 92 89 86 83 81 78 75 73 71 69 67 63 59 55 49 45 41 36 33 30
138 125 113 105 98 92 90 88 85 82 79 75 73 70 69 67 63 60 56 53 47 42 39 36 32 29 31
116 109 101 96 92 88 86 84 80 78 76 73 70 65 60 54 50 47 45 40 38 37 36 33 30 29 33
103 99 96 93 88 84 82 81 78 74 71 65 58 52 48 44 41 38 36 34 33 34 34 31 29 32 34
97 95 92 89 86 82 80 76 70 63 59 53 48 44 41 38 34 31 31 32 33 33 33 30 31 34 33
93 91 88 85 81 77 71 64 59 54 50 46 42 37 35 32 30 31 31 32 34 34 33 33 35 34 34
89 88 85 80 73 67 62 57 52 48 46 42 39 35 32 32 31 32 33 35 34 35 36 36 37 38 36
87 83 78 71 65 58 54 50 48 45 43 40 37 34 32 32 32 34 36 37 37 37 37 38 38 39 41
82 75 68 63 59 54 52 50 46 44 42 40 37 36 34 33 34 37 38 39 40 41 40 41 40 42 42
73 65 62 59 57 54 52 50 47 44 41 40 37 36 35 35 38 40 41 43 43 43 43 44 43 44 44